User: anonymous
Location: Unspecified
(0.0000°N, 0.0000°E)
Time: 15:42:47
(UTC+02:00)
Language:

Cosmos 773 Rocket - Orbit

View from above orbital plane
View from above orbital plane
View from above satellite
View from above satellite

Ground track
Ground track

The orbit data is extracted from the following two-line orbital elements,

1 08344U 75094B   14105.20894850  .00000233  00000-0  84382-4 0  4386
2 08344 074.0568 100.7532 0023224 291.8020 150.6238 14.38720565 18997
Epoch (UTC): 15 April 2014 05:00:53
Eccentricity: 0.0023224
inclination: 74.0568°
perigee height: 746 km
apogee height: 779 km
right ascension of ascending node: 100.7532°
argument of perigee: 291.8020°
revolutions per day: 14.38720565
mean anomaly at epoch: 150.6238°
orbit number at epoch: 1899

The dashed part of the orbit path shows where the satellite is in the earth's shadow,  

DLR